Regional Weather Roundup
Issued by NWS Charleston, SC

Current Version | Previous Version | Text Only | Print | Product List | Glossary Off
Versions: 1 2 3 4 5 6 7 8 9 10 11 12 13 14 15 16 17 18 19 20 21 22 23 24 25 26 27 28 29 30 31 32 33 34 35 36 37 38 39 40 41 42 43 44 45 46 47 48 49 50
000 ASUS42 KCHS 050512 RWRCHS REGIONAL WEATHER ROUNDUP NATIONAL WEATHER SERVICE CHARLESTON SC 100 AM EDT SAT SEP 05 2015 NOTE: "FAIR" INDICATES FEW OR NO CLOUDS BELOW 12,000 FEET WITH NO SIGNIFICANT WEATHER AND/OR OBSTRUCTIONS TO VISIBILITY. NOT ALL STATIONS ARE QUALITY CONTROLLED BY THE NATIONAL WEATHER SERVICE. USE DATA WITH CAUTION...ESPECIALLY DEWPOINT OBSERVATIONS. SCZ027-030-031-034>040-042>050-050600- ...SOUTHEAST SOUTH CAROLINA... CITY SKY/WX TMP DP RH WIND PRES REMARKS N CHARLESTON PTCLDY 74 71 91 CALM 30.01S WATERFRONT PRK N/A 79 77 94 CALM 29.99R MOUNT PLEASANT FAIR 73 73 100 CALM 30.01S FOG JOHNS ISLAND FAIR 73 73 100 CALM 30.01S FOG PINOPOLIS N/A 82 79 89 NE7 29.94S HX 93 MONCKS CORNER FAIR 75 72 88 CALM 30.02R FOG SUMMERVILLE NOT AVBL BEAUFORT MCAS CLEAR 75 72 90 NE3 30.01S BEAUFORT ARPT FAIR 75 73 94 CALM 30.01S HILTON HEAD IS CLEAR 75 75 100 CALM 30.02S WALTERBORO CLEAR 73 70 88 CALM 30.03S ALLENDALE FAIR 72 72 100 CALM 30.02S ...SOUTHERN MIDLANDS AND PEE DEE... CITY SKY/WX TMP DP RH WIND PRES REMARKS GEORGETOWN NOT AVBL KINGSTREE NOT AVBL ORANGEBURG CLOUDY 75 71 87 NE12 30.05R BARNWELL FAIR 73 73 100 N3 30.05R AIKEN TSTM 70 68 94 N7 30.11R MANNING FAIR 68 66 94 CALM 30.04S THUNDER COLUMBIA TSTM 77 68 73 NW12 30.05R SUMTER TSTM 70 68 94 SW5 30.02F FLORENCE CLOUDY 71 68 90 N5 30.05R MYRTLE BEACH MOCLDY 75 64 69 NW3 30.04R N MYRTLE BEACH CLOUDY 74 67 78 CALM 30.01S $$ GAZ063-065-086>088-099>101-113>116-118-119-134>141-150-050600- ...SOUTHEAST GEORGIA... CITY SKY/WX TMP DP RH WIND PRES REMARKS SAVANNAH ARPT CLEAR 74 71 91 N3 30.01S HUNTER AAF CLEAR 75 75 100 CALM 29.98F FORT STEWART CLEAR 73 71 93 CALM 29.98S STATESBORO CLEAR 71 32 24 CALM 30.02S SYLVANIA NOT AVBL CLAXTON NOT AVBL ...CSRA...CENTRAL AND FAR SOUTHEAST GEORGIA... CITY SKY/WX TMP DP RH WIND PRES REMARKS THOMSON MOCLDY 77 71 81 NE7 30.11S AUGUSTA-BUSH CLOUDY 77 71 82 N6 30.04R AUGUSTA-DANIEL MOCLDY 78 69 73 N8 30.07R SWAINSBORO FAIR 72 70 94 CALM 30.03F VIDALIA CLEAR 73 72 94 CALM 30.02S EASTMAN FAIR 74 74 100 CALM 30.03S HAZLEHURST FAIR 74 74 100 CALM 30.00S ALMA CLEAR 71 70 96 E3 30.00S FOG WAYCROSS PTCLDY 75 75 100 CALM 30.00S JESUP FAIR 73 73 100 CALM 30.00F FOG BAXLEY FAIR 73 72 94 CALM 30.00S BRUNSWICK PTCLDY 73 72 94 CALM 29.99F SAINT SIMONS MOCLDY 77 72 84 N3 29.98F $$ SCZ027-028-034-036>038-045-046-048>050-GAZ119-141-050600- ...LAKE AND SUPPLEMENTAL COASTAL OBSERVATIONS... STATION/POSITION TIME TEMP WIND PRES WAVE SWELL AIR SEA DIR/SP/G HT/PER HT/PER/DIR (UTC) (F) (DEG/KT/KT) (MB) (FT/S) (FT/S/D) UPR LAKE MARION NOT AVBL WINYAH BAY NOT AVBL LAKE MURRAY 0400 73 310/ 6/ 9 1017.3R ACE BASIN NERRS NOT AVBL FORT PULASKI 0400 78 84 330/ 3/ 4 1016.7R SAPELO ISLAND 0400 78 200/ 6 1016.0S $$ ANZ835-935-AMZ111-154-330-350-352-354-370-450-454-472-050600- ...C-MAN AND BUOY OBSERVATIONS... STATION/POSITION TIME TEMP WIND PRES WAVE SWELL AIR SEA DIR/SP/G HT/PER HT/PER/DIR (UTC) (F) (DEG/KT/KT) (MB) (FT/S) (FT/S/D) BUOY 41004 0450 82 85 30/ 4/ 4 1015.6S 1/11 2/11 BUOY 41008 0450 83 85 180/ 2/ 4 1015.5F 1 FOLLY BEACH CMAN 0400 82 80/ 4/ 5 1016.3S CAPERS NEARSHORE 0408 82 110/ 4/ 4 1016.1F FRIPP NEARSHORE 0400 83 350/ 6/ 8 1015.6S STATION/POSITION TIME TEMP WIND PRES WAVE SWELL AIR SEA DIR/SP/G HT/PER HT/PER/DIR (UTC) (F) (DEG/KT/KT) (MB) (FT/S) (FT/S/D) 5E ST. MARYS GA 0421 86 N/A 1/12 FRYING PAN BUOY 0450 82 82 360/ 8/ 8 1016.1S 1 BUOY 41025 0450 82 84 70/ 14/ 19 1015.2F 3/ 4 CAPE LOOKOUT NC 0400 81 50/ 16/ 17 1015.5S BUOY 41002 0450 82 84 40/ 8/ 10 1014.4R 1/11 2/130/11 BUOY 41010 0420 83 85 20/ 8/ 10 1015.0F ST AUGUSTINE FL 0500 78 85 240/ 2/ 3 1015.7F $$

USA.gov is the U.S. government's official web portal to all federal, state and local government web resources and services.